Date String (YYYY-MM-DD hh:mm:ss) UTC,Instrument flags,Ambient pressure (hPa),Sample flow (lpm),Bypass flow (lpm),Sample temperature (°C),Ambient temperature (°C),ASC tube jacket temperature (°C),LED temperature (°C),Box temperature (°C),Sample RH (%),Span deviation,Mass concentration (μg/m³),Mass concentration (μg/m³),Mass concentration (μg/m³)
DateTimeUTC,F1_M11,P_M11,Q1_M11,Q2_M11,T1_M11,T2_M11,T3_M11,T4_M11,T5_M11,U1_M11,ZSPAN_M11,X2_M11,X0_M11,X1_M11
2021-11-23 01:00:00,,0829.3,4.99,0.00,30.0,29.0,00.0,39.1,31.6,07.5,0005.2,0009.53,0027.11,0007.72
2021-11-23 01:01:00,,0829.3,4.99,0.00,30.0,29.0,00.0,39.1,31.6,07.5,0005.2,0009.54,0026.85,0007.73
2021-11-23 01:02:00,,0829.3,5.02,0.00,30.0,29.0,00.0,39.1,31.6,07.5,0005.2,0009.46,0026.55,0007.70
2021-11-23 01:03:00,,0829.2,5.00,0.00,30.0,29.0,00.0,39.1,31.6,07.4,0005.0,0009.39,0024.93,0007.62
2021-11-23 01:04:00,,0829.2,5.00,0.00,30.0,29.0,00.0,39.1,31.6,07.4,0005.1,0009.28,0024.80,0007.55
2021-11-23 01:05:00,,0829.2,5.00,0.00,30.0,29.0,00.0,39.1,31.6,07.4,0005.0,0009.19,0023.96,0007.46
2021-11-23 01:06:00,,0829.3,5.00,0.00,30.0,29.0,00.0,39.1,31.6,07.4,0004.9,0009.09,0023.75,0007.37
2021-11-23 01:07:00,,0829.3,5.00,0.00,30.0,29.0,00.0,39.1,31.6,07.4,0005.4,0009.02,0023.93,0007.26
2021-11-23 01:08:00,,0829.3,4.99,0.00,30.0,29.0,00.0,39.1,31.6,07.4,0002.6,0008.92,0023.80,0007.15
2021-11-23 01:09:00,,0829.3,5.00,0.00,30.0,29.0,00.0,39.1,31.6,07.4,0002.4,0008.70,0024.16,0007.03
2021-11-23 01:10:00,,0829.3,5.01,0.00,30.0,29.0,00.0,39.1,31.6,07.4,0000.7,0008.53,0023.17,0006.93
2021-11-23 01:11:00,,0829.2,5.00,0.00,29.9,29.0,00.0,39.1,31.6,07.4,0000.0,0008.38,0022.53,0006.83
2021-11-23 01:12:00,,0829.2,5.00,0.00,29.9,29.0,00.0,39.0,31.6,07.4,0000.0,0008.30,0022.88,0006.72
2021-11-23 01:13:00,,0829.2,4.99,0.00,29.9,28.9,00.0,39.0,31.6,07.4,0000.0,0008.26,0022.29,0006.63
2021-11-23 01:14:00,,0829.3,5.00,0.00,29.9,29.0,00.0,39.0,31.6,07.4,0000.0,0008.20,0023.45,0006.54
2021-11-23 01:15:00,,0829.2,5.00,0.00,29.9,29.0,00.0,39.0,31.6,07.4,0000.0,0008.15,0023.90,0006.45
2021-11-23 01:16:00,,0829.3,5.00,0.00,29.9,29.0,00.0,39.0,31.6,07.4,0000.0,0008.01,0023.07,0006.35
2021-11-23 01:17:00,,0829.2,5.01,0.00,29.9,29.0,00.0,39.0,31.5,07.4,0000.0,0007.94,0022.51,0006.29
2021-11-23 01:18:00,,0829.2,5.00,0.00,29.9,28.9,00.0,39.0,31.5,07.4,0000.0,0007.83,0021.80,0006.23
2021-11-23 01:19:00,,0829.2,5.00,0.00,29.9,28.9,00.0,39.0,31.5,07.3,0000.0,0007.73,0021.97,0006.18
2021-11-23 01:20:00,,0829.2,4.99,0.00,29.9,28.9,00.0,39.0,31.5,07.3,0000.0,0007.77,0021.99,0006.14
2021-11-23 01:21:00,,0829.1,5.01,0.00,29.9,28.9,00.0,39.0,31.5,07.3,0000.0,0007.81,0023.03,0006.11
2021-11-23 01:22:00,,0829.1,5.00,0.00,29.8,28.9,00.0,39.0,31.5,07.3,0000.0,0007.86,0024.34,0006.08
2021-11-23 01:23:00,,0829.1,4.99,0.00,29.8,28.9,00.0,39.0,31.5,07.4,0000.0,0007.83,0025.39,0006.07
2021-11-23 01:24:00,,0829.1,4.99,0.00,29.8,28.9,00.0,38.9,31.4,07.4,0000.0,0007.81,0025.11,0006.06
2021-11-23 01:25:00,,0829.1,5.00,0.00,29.8,28.9,00.0,38.9,31.4,07.3,0000.0,0007.77,0024.66,0006.04
2021-11-23 01:26:00,,0829.0,5.00,0.00,29.8,28.8,00.0,38.9,31.4,07.3,0000.0,0007.73,0025.95,0006.03
2021-11-23 01:27:00,,0829.1,4.99,0.00,29.8,28.8,00.0,38.9,31.4,07.3,0000.0,0007.73,0026.73,0006.02
2021-11-23 01:28:00,,0829.1,5.00,0.00,29.8,28.8,00.0,38.9,31.4,07.3,0000.0,0007.67,0026.90,0005.99
2021-11-23 01:29:00,,0829.1,5.01,0.00,29.7,28.8,00.0,38.9,31.4,07.3,0000.0,0007.63,0026.93,0005.97
2021-11-23 01:30:00,,0829.1,5.00,0.00,29.7,28.8,00.0,38.9,31.4,07.3,0000.0,0007.64,0026.50,0005.96
2021-11-23 01:31:00,,0829.0,4.98,0.00,29.7,28.8,00.0,38.9,31.3,07.3,0000.0,0007.61,0027.06,0005.93
2021-11-23 01:32:00,,0829.1,5.00,0.00,29.7,28.7,00.0,38.9,31.3,07.3,0000.0,0007.56,0026.22,0005.92
2021-11-23 01:33:00,,0829.1,5.00,0.00,29.7,28.7,00.0,38.8,31.3,07.3,0000.0,0007.51,0025.59,0005.89
2021-11-23 01:34:00,,0829.0,5.00,0.00,29.7,28.7,00.0,38.8,31.3,07.3,0000.0,0007.49,0024.14,0005.86
2021-11-23 01:35:00,,0829.0,5.00,0.00,29.7,28.7,00.0,38.8,31.3,07.3,0000.0,0007.52,0025.03,0005.83
2021-11-23 01:36:00,,0829.0,5.01,0.00,29.7,28.7,00.0,38.8,31.3,07.3,0000.0,0007.49,0025.93,0005.81
2021-11-23 01:37:00,,0828.9,4.99,0.00,29.7,28.7,00.0,38.8,31.3,07.3,0000.0,0007.51,0024.14,0005.80
2021-11-23 01:38:00,,0828.9,5.00,0.00,29.7,28.7,00.0,38.8,31.3,07.2,0000.0,0007.47,0023.87,0005.78
2021-11-23 01:39:00,,0828.9,5.00,0.00,29.6,28.7,00.0,38.8,31.3,07.2,0000.0,0007.46,0024.01,0005.75
2021-11-23 01:40:00,,0828.9,5.00,0.00,29.6,28.7,00.0,38.8,31.3,07.2,0000.0,0007.43,0024.85,0005.70
2021-11-23 01:41:00,,0828.8,4.99,0.00,29.6,28.7,00.0,38.8,31.3,07.2,0000.0,0007.38,0024.40,0005.65
2021-11-23 01:42:00,,0828.8,4.99,0.00,29.6,28.7,00.0,38.8,31.3,07.3,0000.0,0007.29,0022.73,0005.62
2021-11-23 01:43:00,,0828.8,5.00,0.00,29.6,28.7,00.0,38.7,31.3,07.2,0000.0,0007.24,0023.87,0005.57
2021-11-23 01:44:00,,0828.9,4.99,0.00,29.6,28.7,00.0,38.7,31.3,07.2,0000.0,0007.22,0025.19,0005.52
2021-11-23 01:45:00,,0829.3,5.00,0.00,29.6,28.7,00.0,38.7,31.3,07.2,0000.0,0007.17,0025.58,0005.46
2021-11-23 01:46:00,,0829.3,5.00,0.00,29.6,28.7,00.0,38.7,31.3,07.2,0000.9,0007.07,0024.55,0005.40
2021-11-23 01:47:00,,0829.2,5.01,0.00,29.6,28.7,00.0,38.7,31.3,07.2,0000.0,0006.97,0022.95,0005.33
2021-11-23 01:48:00,,0829.2,5.00,0.00,29.6,28.7,00.0,38.7,31.2,07.2,0000.0,0006.91,0024.18,0005.28
2021-11-23 01:49:00,,0828.9,5.00,0.00,29.6,28.6,00.0,38.7,31.2,07.2,0000.0,0006.86,0024.31,0005.22
2021-11-23 01:50:00,,0828.7,5.00,0.00,29.6,28.6,00.0,38.7,31.2,07.2,0000.0,0006.82,0024.81,0005.15
2021-11-23 01:51:00,,0828.7,5.01,0.00,29.5,28.6,00.0,38.7,31.2,07.2,0000.0,0006.78,0023.94,0005.12
2021-11-23 01:52:00,,0828.7,4.99,0.00,29.5,28.6,00.0,38.7,31.2,07.2,0000.0,0006.73,0023.38,0005.09
2021-11-23 01:53:00,,0828.7,5.01,0.00,29.5,28.6,00.0,38.6,31.2,07.2,0000.0,0006.74,0023.63,0005.06
2021-11-23 01:54:00,,0828.9,5.01,0.00,29.5,28.5,00.0,38.6,31.1,07.2,0000.0,0006.69,0022.59,0005.05
2021-11-23 01:55:00,,0829.1,4.99,0.00,29.5,28.5,00.0,38.6,31.1,07.2,0000.0,0006.69,0020.85,0005.03
2021-11-23 01:56:00,,0829.2,5.00,0.00,29.5,28.6,00.0,38.6,31.1,07.2,0000.0,0006.66,0021.81,0005.01
2021-11-23 01:57:00,,0829.2,5.00,0.00,29.5,28.5,00.0,38.6,31.1,07.2,0000.0,0006.62,0022.90,0004.99
2021-11-23 01:58:00,,0829.0,5.02,0.00,29.5,28.5,00.0,38.6,31.1,07.2,0000.0,0006.65,0023.30,0005.00
2021-11-23 01:59:00,,0829.1,4.99,0.00,29.5,28.5,00.0,38.6,31.1,07.1,0000.0,0006.60,0022.09,0004.99
